Location: Springfield
(37.2150°N, 93.2980°W)
Time: 17:20:00
(UTC-05:00)

Hubble Space Telescope - Visible Passes

Search period start: 21 April 2019 00:00
Search period end: 01 May 2019 00:00
Orbit: 537 x 540 km, 28.5° (Epoch: 21 April)

Date Brightness Start Highest point End Pass type
(mag) Time Alt. Az. Time Alt. Az. Time Alt. Az.
25 Apr 2.5 05:55:56 10° SW 05:59:07 21° S 06:02:19 10° ESE visible
26 Apr 3.4 04:09:46 10° SE 04:09:46 10° SE 04:09:56 10° SE visible
26 Apr 2.3 05:45:15 10° SW 05:48:32 23° S 05:51:49 10° ESE visible
27 Apr 3.5 03:59:43 10° SE 03:59:43 10° SE 03:59:47 10° SE visible
27 Apr 2.2 05:35:03 12° SW 05:37:57 24° S 05:41:17 10° ESE visible
28 Apr 2.2 05:25:02 15° SW 05:27:21 24° S 05:30:43 10° SE visible
29 Apr 2.1 05:15:02 18° SW 05:16:46 24° S 05:20:08 10° SE visible
30 Apr 2.1 05:05:05 21° SSW 05:06:11 23° S 05:09:31 10° SE visible
